OK1MKH-8 Weather Reports


time (UTC)temp
C
wind
direction
speed
KPH
gust
KPH
rain 1hr
cm
rain 24hr
cm
rain mn
cm
humidity
%
barometer
mb
20260505041630 20 -1 0.0 0.0 0.00 0.00 0.00 5 1001.6
20260505041129 20 -1 0.0 0.0 0.00 0.00 0.00 5 1001.4
20260505040628 20 -1 0.0 0.0 0.00 0.00 0.00 5 1001.4
20260505040127 20 -1 0.0 0.0 0.00 0.00 0.00 5 1001.6
20260505035627 19 -1 0.0 0.0 0.00 0.00 0.00 5 1001.6
20260505035126 19 -1 0.0 0.0 0.00 0.00 0.00 5 1001.7
20260505034625 19 -1 0.0 0.0 0.00 0.00 0.00 5 1001.8
20260505034125 19 -1 0.0 0.0 0.00 0.00 0.00 5 1001.7
20260505033624 18 -1 0.0 0.0 0.00 0.00 0.00 5 1001.8
20260505033123 18 -1 0.0 0.0 0.00 0.00 0.00 5 1002.1
20260505032622 17 -1 0.0 0.0 0.00 0.00 0.00 5 1002.3
20260505032122 17 -1 0.0 0.0 0.00 0.00 0.00 5 1002.4
20260505031621 17 -1 0.0 0.0 0.00 0.00 0.00 5 1002.3
20260505031120 17 -1 0.0 0.0 0.00 0.00 0.00 5 1002.4
20260505030620 17 -1 0.0 0.0 0.00 0.00 0.00 6 1002.4
20260505030119 17 -1 0.0 0.0 0.00 0.00 0.00 6 1002.5
20260505025618 17 -1 0.0 0.0 0.00 0.00 0.00 5 1002.4
20260505025117 17 -1 0.0 0.0 0.00 0.00 0.00 5 1002.3
20260505024617 17 -1 0.0 0.0 0.00 0.00 0.00 6 1002.5
20260505024116 17 -1 0.0 0.0 0.00 0.00 0.00 6 1002.6
20260505023615 17 -1 0.0 0.0 0.00 0.00 0.00 6 1002.7
20260505023115 17 -1 0.0 0.0 0.00 0.00 0.00 6 1002.7
20260505022614 17 -1 0.0 0.0 0.00 0.00 0.00 6 1002.7
20260505022113 17 -1 0.0 0.0 0.00 0.00 0.00 6 1002.8
20260505021612 17 -1 0.0 0.0 0.00 0.00 0.00 6 1002.9
20260505021112 17 -1 0.0 0.0 0.00 0.00 0.00 5 1002.9
20260505020611 17 -1 0.0 0.0 0.00 0.00 0.00 5 1002.8
20260505020110 17 -1 0.0 0.0 0.00 0.00 0.00 6 1003.1
20260505015609 17 -1 0.0 0.0 0.00 0.00 0.00 6 1003.0
20260505015109 17 -1 0.0 0.0 0.00 0.00 0.00 6 1002.9
20260505014608 17 -1 0.0 0.0 0.00 0.00 0.00 6 1002.9
20260505014107 17 -1 0.0 0.0 0.00 0.00 0.00 6 1002.9
20260505013607 17 -1 0.0 0.0 0.00 0.00 0.00 6 1003.0
20260505013106 17 -1 0.0 0.0 0.00 0.00 0.00 6 1003.1
20260505012605 17 -1 0.0 0.0 0.00 0.00 0.00 5 1003.0
20260505012104 17 -1 0.0 0.0 0.00 0.00 0.00 5 1003.1
20260505011604 18 -1 0.0 0.0 0.00 0.00 0.00 5 1003.0
20260505011103 19 -1 0.0 0.0 0.00 0.00 0.00 5 1002.7
20260505010602 19 -1 0.0 0.0 0.00 0.00 0.00 5 1002.6
20260505005601 18 -1 0.0 0.0 0.00 0.00 0.00 5 1003.0
20260505005100 18 -1 0.0 0.0 0.00 0.00 0.00 5 1003.1
20260505004559 18 -1 0.0 0.0 0.00 0.00 0.00 5 1003.1
20260505004059 19 -1 0.0 0.0 0.00 0.00 0.00 5 1002.9
20260505003558 18 -1 0.0 0.0 0.00 0.00 0.00 5 1003.1
20260505003057 18 -1 0.0 0.0 0.00 0.00 0.00 5 1003.3
20260505002557 18 -1 0.0 0.0 0.00 0.00 0.00 5 1003.3
20260505002056 18 -1 0.0 0.0 0.00 0.00 0.00 5 1003.4
20260505001555 18 -1 0.0 0.0 0.00 0.00 0.00 5 1003.4
20260505001054 18 -1 0.0 0.0 0.00 0.00 0.00 5 1003.5
20260505000554 18 -1 0.0 0.0 0.00 0.00 0.00 5 1003.7
20260505000053 18 -1 0.0 0.0 0.00 0.00 0.00 5 1003.7
20260504235552 18 -1 0.0 0.0 0.00 0.00 0.00 5 1003.7
20260504235051 18 -1 0.0 0.0 0.00 0.00 0.00 5 1003.9
20260504234551 17 -1 0.0 0.0 0.00 0.00 0.00 5 1004.2
20260504234050 17 -1 0.0 0.0 0.00 0.00 0.00 5 1004.3
20260504233549 18 -1 0.0 0.0 0.00 0.00 0.00 5 1004.1
20260504233048 18 -1 0.0 0.0 0.00 0.00 0.00 5 1004.2
20260504232548 18 -1 0.0 0.0 0.00 0.00 0.00 5 1004.2
20260504232047 18 -1 0.0 0.0 0.00 0.00 0.00 5 1004.1
20260504231546 19 -1 0.0 0.0 0.00 0.00 0.00 5 1004.0
20260504231046 19 -1 0.0 0.0 0.00 0.00 0.00 5 1004.1
20260504230545 19 -1 0.0 0.0 0.00 0.00 0.00 5 1004.3
20260504230044 19 -1 0.0 0.0 0.00 0.00 0.00 5 1004.3
20260504225543 19 -1 0.0 0.0 0.00 0.00 0.00 5 1004.4
20260504225043 19 -1 6.4 6.4 0.00 0.00 0.00 5 1004.5
20260504224542 19 -1 4.8 6.4 0.00 0.00 0.00 5 1004.5
20260504224041 19 -1 4.8 9.7 0.00 0.00 0.00 5 1004.5
20260504223542 19 -1 0.0 6.4 0.00 0.00 0.00 5 1004.5
20260504223040 20 -1 4.8 8.0 0.00 0.00 0.00 5 1004.4
20260504222539 20 -1 4.8 6.4 0.00 0.00 0.00 5 1004.3
20260504222038 20 -1 0.0 0.0 0.00 0.00 0.00 5 1004.2
20260504221538 20 -1 0.0 0.0 0.00 0.00 0.00 5 1004.2
20260504221037 20 -1 6.4 8.0 0.00 0.00 0.00 5 1004.2
20260504220536 20 -1 8.0 8.0 0.00 0.00 0.00 5 1004.1
20260504220036 20 -1 0.0 0.0 0.00 0.00 0.00 5 1004.1
20260504215535 20 -1 0.0 0.0 0.00 0.00 0.00 5 1004.3
20260504215034 20 -1 0.0 0.0 0.00 0.00 0.00 5 1004.3
20260504214533 20 -1 0.0 0.0 0.00 0.00 0.00 5 1004.3
20260504214033 19 -1 0.0 0.0 0.00 0.00 0.00 5 1004.4
20260504213532 19 -1 0.0 0.0 0.00 0.00 0.00 5 1004.4
20260504213031 20 -1 6.4 11.3 0.00 0.00 0.00 5 1004.4
20260504212530 20 -1 6.4 11.3 0.00 0.00 0.00 5 1004.3
20260504212030 19 -1 0.0 0.0 0.00 0.00 0.00 5 1004.5
20260504211529 19 -1 0.0 0.0 0.00 0.00 0.00 5 1004.6
20260504211028 20 -1 4.8 6.4 0.00 0.00 0.00 5 1004.5
20260504210528 20 -1 0.0 0.0 0.00 0.00 0.00 4 1004.6
20260504210027 19 -1 4.8 8.0 0.00 0.00 0.00 5 1004.8
20260504205526 19 -1 4.8 8.0 0.00 0.00 0.00 5 1004.9
20260504205026 19 -1 3.2 4.8 0.00 0.00 0.00 5 1005.0
20260504204525 19 -1 0.0 0.0 0.00 0.00 0.00 4 1005.0
20260504204024 20 -1 0.0 0.0 0.00 0.00 0.00 4 1004.9
20260504203523 20 -1 0.0 0.0 0.00 0.00 0.00 4 1004.8
20260504203022 20 -1 3.2 4.8 0.00 0.00 0.00 4 1004.8
20260504202522 21 -1 0.0 0.0 0.00 0.00 0.00 4 1004.2
20260504202021 21 -1 0.0 0.0 0.00 0.00 0.00 4 1004.3
20260504201520 22 -1 0.0 0.0 0.00 0.00 0.00 4 1004.2
20260504201019 21 -1 0.0 0.0 0.00 0.00 0.00 4 1004.2
20260504200519 22 -1 0.0 0.0 0.00 0.00 0.00 4 1004.3
20260504200018 22 -1 0.0 0.0 0.00 0.00 0.00 4 1004.2
20260504195517 22 -1 0.0 0.0 0.00 0.00 0.00 4 1004.1
20260504195017 22 -1 0.0 0.0 0.00 0.00 0.00 4 1004.2
20260504194516 22 -1 0.0 0.0 0.00 0.00 0.00 4 1004.1
20260504194015 21 -1 0.0 0.0 0.00 0.00 0.00 4 1004.2
20260504193514 22 -1 0.0 0.0 0.00 0.00 0.00 4 1004.2
20260504193014 22 -1 0.0 0.0 0.00 0.00 0.00 4 1004.0
20260504192513 22 -1 0.0 0.0 0.00 0.00 0.00 4 1004.0
20260504192012 22 -1 0.0 0.0 0.00 0.00 0.00 3 1003.9
20260504191511 22 -1 0.0 0.0 0.00 0.00 0.00 4 1003.8
20260504191011 22 -1 0.0 0.0 0.00 0.00 0.00 4 1003.8
20260504190509 22 -1 0.0 0.0 0.00 0.00 0.00 3 1003.7
20260504190008 22 -1 0.0 0.0 0.00 0.00 0.00 4 1003.7
20260504185508 22 -1 0.0 0.0 0.00 0.00 0.00 3 1003.7
20260504185007 22 -1 0.0 0.0 0.00 0.00 0.00 3 1003.6
20260504184506 23 -1 0.0 0.0 0.00 0.00 0.00 3 1003.4
20260504184005 22 -1 0.0 0.0 0.00 0.00 0.00 3 1003.5
20260504183505 23 -1 0.0 0.0 0.00 0.00 0.00 3 1003.3
20260504183004 23 -1 0.0 0.0 0.00 0.00 0.00 3 1003.2
20260504182505 23 -1 4.8 0.0 0.00 0.00 0.00 3 1003.2
20260504182002 23 -1 0.0 0.0 0.00 0.00 0.00 3 1003.2
20260504181502 23 -1 0.0 0.0 0.00 0.00 0.00 3 1003.1
20260504181001 23 -1 0.0 0.0 0.00 0.00 0.00 3 1003.1
20260504180500 24 -1 0.0 0.0 0.00 0.00 0.00 3 1003.1
20260504180002 24 -1 0.0 0.0 0.00 0.00 0.00 3 1003.0
20260504175459 24 -1 3.2 4.8 0.00 0.00 0.00 3 1003.0
20260504174958 24 -1 4.8 6.4 0.00 0.00 0.00 3 1002.9
20260504174457 24 -1 0.0 4.8 0.00 0.00 0.00 3 1002.9
20260504173956 25 -1 3.2 6.4 0.00 0.00 0.00 3 1002.9
20260504173456 24 -1 4.8 9.7 0.00 0.00 0.00 3 1002.9
20260504172955 24 -1 6.4 12.9 0.00 0.00 0.00 3 1002.9
20260504172454 25 -1 4.8 8.0 0.00 0.00 0.00 3 1002.8
20260504171953 25 -1 4.8 6.4 0.00 0.00 0.00 3 1002.9
20260504171452 25 -1 4.8 6.4 0.00 0.00 0.00 3 1002.8
20260504170951 25 -1 4.8 6.4 0.00 0.00 0.00 3 1002.8
20260504170450 25 -1 0.0 4.8 0.00 0.00 0.00 3 1002.9
20260504160441 27 -1 9.7 19.3 0.00 0.00 0.00 3 1002.3
20260504150933 30 -1 4.8 11.3 0.00 0.00 0.00 2 1001.8
20260504150432 29 -1 6.4 14.5 0.00 0.00 0.00 2 1002.0
20260504140925 28 -1 8.0 16.1 0.00 0.00 0.00 2 1002.5
20260504140424 28 -1 8.0 16.1 0.00 0.00 0.00 2 1002.4
20260504130415 30 -1 8.0 17.7 0.00 0.00 0.00 2 1002.7
20260504110357 28 -1 6.4 14.5 0.00 0.00 0.00 2 1003.9
20260504100348 26 -1 4.8 4.8 0.00 0.00 0.00 2 1005.3
20260504081833 26 -1 0.0 0.0 0.00 0.00 0.00 3 1005.2
20260504081332 26 -1 0.0 0.0 0.00 0.00 0.00 3 1005.3
20260504080832 26 -1 0.0 0.0 0.00 0.00 0.00 3 1005.3
20260504080331 23 -1 0.0 0.0 0.00 0.00 0.00 3 1005.7
20260504070322 23 -1 0.0 0.0 0.00 0.00 0.00 4 1005.6
20260504050305 16 -1 0.0 0.0 0.00 0.00 0.00 5 1007.3
20260504045804 16 -1 0.0 0.0 0.00 0.00 0.00 5 1007.4
20260504045304 16 -1 0.0 0.0 0.00 0.00 0.00 5 1007.6
20260504044803 15 -1 0.0 0.0 0.00 0.00 0.00 5 1007.7
20260504044303 15 -1 0.0 0.0 0.00 0.00 0.00 5 1007.8
20260504043802 15 -1 0.0 0.0 0.00 0.00 0.00 5 1007.8
20260504043301 15 -1 0.0 0.0 0.00 0.00 0.00 5 1008.0
20260504042800 15 -1 0.0 0.0 0.00 0.00 0.00 5 1008.0
20260504042259 16 -1 0.0 0.0 0.00 0.00 0.00 5 1007.5
20260504041759 16 -1 0.0 0.0 0.00 0.00 0.00 4 1007.3